[[{"header":{"parameterUnit":"m.s-1","parameterCategory":1,"la1":30.2991,"la2":30.254,"lo1":-89.0895,"lo2":-89.0444,"dy":0.0017,"dx":0.0017,"nx":28,"ny":28,"refTime":"2025-11-11T09:00:00:Z","depth":0,"parameterNumber":2,"parameterNumberName":"U-component_of_WINDS"},"data":[0,0,0,0,0,0,0,0,0,0,0,0,0,0,0,0,0,0,0,0,0,0,0,0,0,0,0,0,0,0,0,0,0,0,0,0,0,0,0,0,0,0,0,0,0,0,0,0,0,0,0,0,0,0,0,0,0,0,2.5276,2.5277,0,2.5341,2.5341,2.5342,2.5319,2.5318,2.5316,2.5315,2.5378,2.5381,2.5384,0,0,0,0,0,0,0,0,0,0,0,0,0,2.5128,2.5131,2.5276,2.5277,2.5277,2.534,2.5341,2.5342,2.532,2.5318,2.5316,2.5315,2.5377,2.5381,2.5385,0,0,0,0,0,0,0,0,0,0,0,0,0,2.5192,2.5132,2.5276,2.5274,2.5274,2.534,2.5341,2.5342,2.532,2.5318,2.5316,2.5314,2.5376,2.5381,2.5385,2.5456,0,0,2.5399,2.5401,0,0,0,0,0,0,0,0,2.5189,2.5198,2.5273,2.5274,2.5275,2.532,2.5312,2.538,2.5321,2.5303,2.5315,2.5313,2.536,2.5366,2.5383,2.5459,2.5461,2.5399,2.5402,2.5404,2.5405,0,0,0,0,0,0,0,2.5184,2.5195,2.5301,2.5274,2.5275,2.5268,2.5275,2.5325,2.5343,2.5304,2.5302,2.5311,2.536,2.5379,2.5384,2.5462,2.5399,2.5403,2.5406,2.5408,2.5595,2.5597,0,0,0,0,0,0,2.518,2.5191,2.5299,2.5303,2.5226,2.5273,2.528,2.5307,2.5342,2.5345,2.5312,2.5309,2.5372,2.5379,2.5386,2.5468,2.5404,2.5408,2.5411,2.5592,2.5595,2.5597,0,0,0,0,0,0,2.5177,2.519,2.5297,2.5247,2.526,2.5277,2.5308,2.531,2.5328,2.5348,2.5351,2.5328,2.537,2.538,2.5438,2.547,2.541,2.5414,2.559,2.5593,2.5596,2.5633,0,0,0,0,0,0,2.5173,2.5189,2.5217,2.5248,2.5263,2.5349,2.531,2.5313,2.5336,2.5333,2.5364,2.5367,2.5369,2.5431,2.5442,2.5475,2.5418,2.5587,2.5591,2.5595,2.5629,2.5638,2.5645,0,0,0,0,0,2.5167,2.5225,2.5219,2.5232,2.5299,2.5351,2.5359,2.5362,2.5339,2.5366,2.5379,2.5366,2.5465,2.5437,2.545,2.5484,2.5585,2.559,2.5595,2.5626,2.5636,2.5644,0,0,0,0,0,0,2.5198,2.5229,2.5222,2.5292,2.5319,2.5347,2.5382,2.5373,2.5406,2.5402,2.5403,2.541,2.5468,2.5483,2.5451,2.5552,2.5521,2.5529,2.554,2.555,2.5558,2.5552,2.5422,0,0,0,0,0,2.5213,2.5254,2.5279,2.5338,2.5352,2.5364,2.5387,2.5387,2.5414,2.5425,2.5442,2.5468,2.5504,2.5529,2.5564,2.5632,2.5636,2.5661,2.5669,2.5675,2.5681,2.5714,2.5724,2.5614,2.5614,2.5614,0,0,2.5244,2.5266,2.5292,2.5344,2.5365,2.5405,2.5374,2.5419,2.5447,2.5432,2.5486,2.55,2.5528,2.5591,2.5619,2.5604,2.5712,2.5682,2.5687,2.5689,2.572,2.573,2.574,2.5618,2.5617,2.5616,0,0,2.532,2.5343,2.5393,2.5414,2.5445,2.5453,2.5465,2.5493,2.5501,2.5557,2.5544,2.5578,2.5643,2.5662,2.5681,2.5762,2.5749,2.5773,2.5812,2.5844,2.5853,2.586,2.5886,2.5895,2.578,2.578,2.578,0,2.5355,2.5416,2.5419,2.5464,2.5485,2.5473,2.5522,2.5542,2.5583,2.5597,2.558,2.5658,2.5677,2.5741,2.5761,2.5778,2.5789,2.5769,2.5852,2.5859,2.5866,2.589,2.59,2.5782,2.5782,2.5782,2.5781,0,2.5454,2.5496,2.5533,2.5572,2.5598,2.5645,2.5653,2.5679,2.5676,2.5684,2.5739,2.5761,2.5798,2.5814,2.5813,2.5878,2.5867,2.5851,2.582,2.5879,2.5901,2.5911,2.5786,2.5785,2.5784,2.5783,0,0,2.5551,2.5591,2.5603,2.5619,2.5652,2.5684,2.5729,2.5766,2.5786,2.5815,2.5849,2.5903,2.5887,2.5908,2.5908,2.5937,2.5995,2.5917,2.5918,2.5927,2.6063,2.6072,2.6083,2.5988,2.599,2.5991,2.606,0,2.5627,2.5706,2.5709,2.578,2.5817,2.5805,2.5843,2.5866,2.5875,2.5906,2.5916,2.5952,2.5931,2.5943,2.5971,2.5982,2.6021,2.5977,2.6017,2.6019,2.6007,2.6096,2.6106,2.617,2.6069,2.607,2.6071,0,2.5727,2.5757,2.5832,2.5856,2.5871,2.5906,2.5938,2.5969,2.5994,2.5998,2.602,2.6015,2.6058,2.6027,2.6084,2.6054,2.6071,2.6078,2.6081,2.6082,2.6046,2.6096,2.6191,2.6199,2.6086,2.6085,2.6084,0,2.5785,2.5845,2.5896,2.5911,2.5942,2.5965,2.5979,2.6002,2.6022,2.605,2.6063,2.6096,2.6113,2.6138,2.6141,2.6119,2.6197,2.6167,2.6199,2.6198,2.6213,2.6212,2.6309,2.623,2.623,2.623,2.6229,0,2.5868,2.5913,2.5922,2.5954,2.6002,2.6005,2.6053,2.6065,2.6084,2.6116,2.6108,2.6138,2.6141,2.6171,2.6174,2.6218,2.6227,2.623,2.6229,2.6229,2.6228,2.6237,2.6232,2.6232,2.6232,2.6231,2.6231,0,2.594,2.5949,2.6003,2.6027,2.6034,2.6069,2.6088,2.6117,2.6125,2.6164,2.6174,2.6186,2.622,2.6226,2.6267,2.6268,2.632,2.6317,2.6312,2.631,2.634,2.6336,2.6444,2.6457,2.6373,2.6374,2.6374,0,2.5991,2.6025,2.6052,2.6073,2.6087,2.6121,2.6142,2.6145,2.6166,2.6195,2.622,2.6253,2.628,2.6335,2.6346,2.6376,2.6371,2.6407,2.6376,2.6373,2.6367,2.6364,2.6366,2.6412,2.6413,2.6414,2.6415,0,2.6079,2.608,2.6111,2.6142,2.6167,2.6192,2.6216,2.6233,2.6238,2.6263,2.6298,2.6318,2.6359,2.6391,2.6421,2.6433,2.6423,2.6425,2.6433,2.6431,2.6425,2.6425,2.6324,2.6422,2.6421,2.642,2.642,2.642,2.6139,2.6167,2.619,2.6223,2.6241,2.6262,2.6289,2.63,2.6329,2.6362,2.6362,2.64,2.642,2.6459,2.6473,2.6501,2.6489,2.6502,2.6505,2.6507,2.6508,2.6423,2.6507,2.6506,2.6506,2.6506,2.6506,0,2.6223,2.6236,2.6267,2.6299,2.6325,2.6315,2.634,2.6361,2.6394,2.6415,2.6441,2.6479,2.6509,2.6523,2.6552,2.6571,2.6568,2.6579,2.6576,2.6578,2.6519,2.6507,2.6581,2.6581,2.6581,2.6581,2.6581,2.6581,2.6269,2.6315,2.6319,2.6373,2.6386,2.6422,2.6436,2.6455,2.6471,2.6514,2.6539,2.6548,2.6564,2.6594,2.6621,2.6624,2.6633,2.6646,2.6646,2.659,2.6582,2.6575,2.6564,2.6649,2.6649,2.6703,2.6703,2.6703]},{"header":{"parameterUnit":"m.s-1","parameterCategory":1,"la1":30.2991,"la2":30.254,"lo1":-89.0895,"lo2":-89.0444,"dy":0.0017,"dx":0.0017,"nx":28,"ny":28,"refTime":"2025-11-11T09:00:00:Z","depth":0,"parameterNumber":3,"parameterNumberName":"V-component_of_WINDS"},"data":[0,0,0,0,0,0,0,0,0,0,0,0,0,0,0,0,0,0,0,0,0,0,0,0,0,0,0,0,0,0,0,0,0,0,0,0,0,0,0,0,0,0,0,0,0,0,0,0,0,0,0,0,0,0,0,0,0,0,1.3295,1.3294,0,1.3201,1.32,1.3199,1.3118,1.3117,1.3116,1.3115,1.3017,1.3015,1.3013,0,0,0,0,0,0,0,0,0,0,0,0,0,1.3401,1.3399,1.3295,1.3294,1.3293,1.3201,1.32,1.3199,1.3118,1.3117,1.3116,1.3115,1.3018,1.3015,1.3013,0,0,0,0,0,0,0,0,0,0,0,0,0,1.3336,1.3399,1.3296,1.3242,1.3236,1.3202,1.32,1.3198,1.3118,1.3117,1.3116,1.3114,1.3018,1.3016,1.3013,1.3023,0,0,1.3005,1.3004,0,0,0,0,0,0,0,0,1.334,1.3332,1.3251,1.3245,1.3239,1.317,1.3201,1.314,1.3119,1.3163,1.3115,1.3114,1.3069,1.3062,1.3047,1.3019,1.3015,1.3005,1.3003,1.3002,1.3001,0,0,0,0,0,0,0,1.3344,1.3336,1.3258,1.325,1.3242,1.3221,1.321,1.3189,1.3125,1.3159,1.3153,1.3143,1.3065,1.305,1.3044,1.3013,1.3005,1.3002,1.3001,1.3,1.2984,1.2985,0,0,0,0,0,0,1.3357,1.334,1.3261,1.3255,1.3287,1.322,1.3208,1.3193,1.3125,1.3113,1.3144,1.314,1.3055,1.3047,1.304,1.3045,1.3002,1.2999,1.2998,1.2983,1.2985,1.2986,0,0,0,0,0,0,1.336,1.3351,1.3265,1.3296,1.3283,1.322,1.3204,1.3192,1.3177,1.3113,1.3101,1.3141,1.3054,1.3044,1.3027,1.3041,1.2998,1.2996,1.2982,1.2984,1.2985,1.3058,0,0,0,0,0,0,1.3363,1.3353,1.3357,1.3297,1.3282,1.3255,1.3205,1.3191,1.3173,1.3166,1.3107,1.3096,1.3052,1.3032,1.3025,1.3036,1.2994,1.298,1.2983,1.2985,1.3054,1.3062,1.3068,0,0,0,0,0,1.3368,1.3382,1.3358,1.3349,1.3286,1.3256,1.3247,1.3197,1.3174,1.3177,1.3136,1.3098,1.3041,1.3031,1.3022,1.3033,1.2979,1.2982,1.2984,1.305,1.306,1.3068,0,0,0,0,0,0,1.3446,1.3373,1.3346,1.3341,1.3305,1.3243,1.3245,1.321,1.318,1.3174,1.3112,1.31,1.3089,1.3059,1.305,1.3038,1.3005,1.3006,1.3058,1.3066,1.3074,1.308,1.2991,0,0,0,0,0,1.3463,1.3445,1.3382,1.3384,1.3367,1.3309,1.3294,1.3259,1.3219,1.3203,1.3161,1.3123,1.3096,1.3079,1.3052,1.3049,1.3033,1.3052,1.3059,1.3066,1.3067,1.306,1.3067,1.2995,1.2995,1.2995,0,0,1.3497,1.3455,1.3448,1.3398,1.3366,1.3348,1.3297,1.3281,1.3266,1.32,1.3181,1.3149,1.3102,1.3092,1.3085,1.3067,1.3083,1.3069,1.3075,1.3072,1.3063,1.307,1.3076,1.2997,1.2996,1.2996,0,0,1.355,1.3517,1.3514,1.3482,1.3435,1.3396,1.3395,1.3337,1.3312,1.3293,1.3242,1.3223,1.3179,1.3146,1.3124,1.3161,1.3124,1.3154,1.3192,1.3186,1.3192,1.3196,1.3207,1.3212,1.3156,1.3156,1.3156,0,1.3598,1.357,1.3516,1.3502,1.348,1.342,1.3415,1.3387,1.3332,1.3318,1.3298,1.3239,1.3204,1.3183,1.3192,1.3177,1.3172,1.316,1.3195,1.3199,1.3203,1.3212,1.3217,1.316,1.3159,1.3159,1.3159,0,1.363,1.3611,1.3613,1.3562,1.3541,1.3531,1.3474,1.3459,1.3424,1.3387,1.3365,1.332,1.328,1.3273,1.324,1.3247,1.3236,1.3207,1.3172,1.3215,1.3222,1.3226,1.3165,1.3164,1.3163,1.3162,0,0,1.373,1.3648,1.365,1.3624,1.3566,1.3549,1.3535,1.3497,1.3483,1.3447,1.3432,1.3395,1.3366,1.3341,1.3303,1.3298,1.3326,1.3268,1.3266,1.3278,1.3328,1.3349,1.3355,1.3301,1.3302,1.3302,1.3331,0,1.3772,1.3745,1.3695,1.3683,1.3663,1.3604,1.3592,1.3553,1.3517,1.3493,1.3453,1.3426,1.3392,1.3376,1.3368,1.3325,1.3335,1.3322,1.3284,1.3284,1.3297,1.3359,1.3382,1.3412,1.3334,1.3334,1.3335,0,1.3818,1.3784,1.3771,1.3711,1.37,1.369,1.3649,1.3628,1.3582,1.3555,1.3526,1.3484,1.3463,1.3432,1.3402,1.3394,1.3375,1.3351,1.3351,1.3345,1.3311,1.3352,1.342,1.3424,1.3339,1.3339,1.3339,0,1.3889,1.3841,1.3826,1.3806,1.3737,1.373,1.3701,1.3654,1.3633,1.3596,1.3581,1.3543,1.3522,1.3492,1.3439,1.3422,1.3413,1.3378,1.3388,1.339,1.3389,1.3389,1.3453,1.338,1.338,1.338,1.338,0,1.394,1.3934,1.3857,1.3847,1.3837,1.3779,1.3769,1.3734,1.3692,1.3673,1.362,1.3602,1.3535,1.3509,1.3467,1.3446,1.3438,1.3414,1.3403,1.3418,1.3421,1.3404,1.34,1.3381,1.3381,1.338,1.338,0,1.4019,1.3967,1.3946,1.3882,1.3865,1.386,1.3804,1.3791,1.3751,1.3727,1.3718,1.3655,1.3621,1.3566,1.3516,1.3488,1.3474,1.3456,1.349,1.3482,1.3495,1.3494,1.3549,1.3552,1.3479,1.348,1.3481,0,1.4054,1.4047,1.3982,1.3965,1.3938,1.3912,1.389,1.3832,1.381,1.3756,1.3749,1.3711,1.3678,1.3626,1.3575,1.3535,1.3515,1.3537,1.3509,1.3523,1.3513,1.3513,1.3511,1.3543,1.3545,1.3545,1.3546,0,1.4121,1.4095,1.4066,1.4027,1.4002,1.3969,1.3932,1.3922,1.3854,1.3833,1.3798,1.3772,1.372,1.3683,1.3636,1.3603,1.3562,1.3555,1.3555,1.357,1.3589,1.3576,1.3505,1.3554,1.3553,1.3553,1.3552,1.3552,1.4177,1.4167,1.4119,1.4087,1.4054,1.402,1.4004,1.3962,1.3932,1.3886,1.3853,1.3819,1.377,1.3703,1.3672,1.3643,1.3625,1.3626,1.3626,1.3626,1.3631,1.3594,1.3635,1.3634,1.3634,1.3634,1.3633,0,1.424,1.4205,1.4177,1.4127,1.4101,1.4067,1.4024,1.4004,1.3975,1.3933,1.3901,1.3859,1.3822,1.3766,1.3724,1.3711,1.3691,1.3702,1.3701,1.3693,1.365,1.3654,1.3718,1.3718,1.3718,1.3718,1.3718,1.3718,1.4269,1.425,1.4218,1.418,1.4145,1.4112,1.409,1.4058,1.4024,1.398,1.3948,1.3913,1.3864,1.3817,1.378,1.3764,1.375,1.3766,1.3744,1.3705,1.3697,1.369,1.3692,1.3764,1.3764,1.3789,1.379,1.379]}]]